Weather History for Austin, MN

Change the Weather History Date:

Friday, March 14, 2014

  Actual Average Record
Temperature  
Mean Temperature 34 °F -  
Max Temperature 39 °F 34 °F 73 °F (2012)
Min Temperature 30 °F 19 °F -4 °F (1999)
Degree Days  
Heating Degree Days 30    
Moisture  
Dew Point 31 °F    
Average Humidity 80    
Maximum Humidity 87    
Minimum Humidity 70    
Precipitation  
Precipitation 0.00 in - - ()
Sea Level Pressure  
Sea Level Pressure 29.70 in    
Wind  
Wind Speed 13 mph (WNW)    
Max Wind Speed 22 mph    
Max Gust Speed 30 mph    
Visibility 10 miles    
Events      
Averages and records for this station are not official NWS values.
T = Trace of Precipitation, MM = Missing Value Source: NWS Daily Summary

Daily Weather History Graph

Daily Weather History Graph

Search for Another Location

Airport:

Trip Planner

Search our weather history database for the weather conditions in past years. The results will help you decide how hot, cold, wet, or windy it might be!

Date:

Astronomy

Mar. 14, 2014 Rise Set
Actual Time 7:25 AM CDT 7:16 PM CDT
Civil Twilight 6:57 AM CDT 7:45 PM CDT
Nautical Twilight 6:23 AM CDT 8:18 PM CDT
Astronomical Twilight 5:50 AM CDT 8:52 PM CDT
Moon 5:37 PM CDT (3/14) 6:08 AM CDT (3/14)
Length of Visible Light 12h 48m
Length of Day
11h 51m
Waxing Gibbous, 96% of the Moon is Illuminated
Mar 14
Waxing Gibbous
Mar 16
Full
Mar 23
Last Quarter
Mar 30
New
Apr 7
First Quarter

Hourly Weather History & Observations

Time (CDT) Temp. Windchill Dew Point Humidity Pressure Visibility Wind Dir Wind Speed Gust Speed Precip Events Conditions
12:15 AM 39.2 °F 32.5 °F 32.0 °F 75% 29.56 in 10.0 mi SSW 10.4 mph - N/A   Clear
12:35 AM 39.2 °F 32.0 °F 32.0 °F 75% 29.55 in 10.0 mi SSW 11.5 mph - N/A   Clear
12:55 AM 39.2 °F 32.0 °F 30.2 °F 70% 29.54 in 10.0 mi SSW 11.5 mph - N/A   Clear
1:15 AM 39.2 °F 32.5 °F 30.2 °F 70% 29.55 in 10.0 mi SW 10.4 mph - N/A   Clear
1:35 AM 39.2 °F 34.2 °F 30.2 °F 70% 29.55 in 10.0 mi SW 6.9 mph - N/A   Clear
1:55 AM 37.4 °F 32.1 °F 30.2 °F 75% 29.55 in 10.0 mi SW 6.9 mph - N/A   Clear
2:14 AM 37.4 °F 31.4 °F 30.2 °F 75% 29.54 in 10.0 mi SW 8.1 mph - N/A   Clear
2:35 AM 37.4 °F 31.4 °F 30.2 °F 75% 29.54 in 10.0 mi SW 8.1 mph - N/A   Clear
2:55 AM 39.2 °F 33.6 °F 30.2 °F 70% 29.54 in 10.0 mi WSW 8.1 mph - N/A   Clear
3:15 AM 37.4 °F 32.8 °F 30.2 °F 75% 29.53 in 10.0 mi WSW 5.8 mph - N/A   Clear
3:35 AM 37.4 °F 32.8 °F 30.2 °F 75% 29.53 in 10.0 mi West 5.8 mph - N/A   Clear
3:55 AM 37.4 °F 32.1 °F 30.2 °F 75% 29.53 in 10.0 mi WSW 6.9 mph - N/A   Clear
4:15 AM 37.4 °F 31.4 °F 30.2 °F 75% 29.53 in 10.0 mi West 8.1 mph - N/A   Clear
4:35 AM 37.4 °F 30.8 °F 30.2 °F 75% 29.54 in 10.0 mi WNW 9.2 mph - N/A   Clear
4:55 AM 37.4 °F 30.3 °F 32.0 °F 81% 29.54 in 10.0 mi WNW 10.4 mph - N/A   Clear
5:15 AM 37.4 °F 29.3 °F 32.0 °F 81% 29.55 in 10.0 mi WNW 12.7 mph 17.3 mph N/A   Clear
5:35 AM 37.4 °F 28.2 °F 32.0 °F 81% 29.56 in 10.0 mi WNW 16.1 mph - N/A   Clear
5:55 AM 37.4 °F 28.2 °F 32.0 °F 81% 29.57 in 10.0 mi WNW 16.1 mph - N/A   Clear
6:15 AM 35.6 °F 26.6 °F 32.0 °F 87% 29.58 in 10.0 mi WNW 13.8 mph 19.6 mph N/A   Clear
6:34 AM 35.6 °F 27.1 °F 30.2 °F 81% 29.59 in 10.0 mi WNW 12.7 mph - N/A   Clear
6:55 AM 35.6 °F 25.9 °F 30.2 °F 81% 29.59 in 10.0 mi WNW 16.1 mph 20.7 mph N/A   Scattered Clouds
7:15 AM 35.6 °F 26.2 °F 30.2 °F 81% 29.60 in 10.0 mi WNW 15.0 mph 23.0 mph N/A   Mostly Cloudy
7:34 AM 35.6 °F 25.9 °F 30.2 °F 81% 29.60 in 10.0 mi WNW 16.1 mph 21.9 mph N/A   Mostly Cloudy
7:55 AM 35.6 °F 26.2 °F 30.2 °F 81% 29.61 in 10.0 mi WNW 15.0 mph - N/A   Mostly Cloudy
8:15 AM 35.6 °F 26.2 °F 30.2 °F 81% 29.62 in 10.0 mi WNW 15.0 mph 24.2 mph N/A   Scattered Clouds
8:34 AM 35.6 °F 26.6 °F 30.2 °F 81% 29.62 in 10.0 mi WNW 13.8 mph 24.2 mph N/A   Clear
8:55 AM 35.6 °F 25.5 °F 30.2 °F 81% 29.63 in 10.0 mi WNW 17.3 mph 20.7 mph N/A   Clear
9:15 AM 35.6 °F 25.9 °F 30.2 °F 81% 29.63 in 10.0 mi WNW 16.1 mph 23.0 mph N/A   Clear
9:35 AM 35.6 °F 25.5 °F 30.2 °F 81% 29.64 in 10.0 mi WNW 17.3 mph - N/A   Clear
9:55 AM 35.6 °F 25.2 °F 30.2 °F 81% 29.64 in 10.0 mi NW 18.4 mph 27.6 mph N/A   Mostly Cloudy
10:15 AM 35.6 °F 24.8 °F 30.2 °F 81% 29.65 in 10.0 mi NW 19.6 mph 27.6 mph N/A   Mostly Cloudy
10:35 AM 37.4 °F 28.2 °F 30.2 °F 75% 29.65 in 10.0 mi WNW 16.1 mph 23.0 mph N/A   Scattered Clouds
10:55 AM 37.4 °F 26.9 °F 30.2 °F 75% 29.66 in 10.0 mi WNW 20.7 mph 29.9 mph N/A   Scattered Clouds
11:15 AM 35.6 °F 25.5 °F 30.2 °F 81% 29.67 in 10.0 mi WNW 17.3 mph 21.9 mph N/A   Overcast
11:35 AM 37.4 °F 28.2 °F 32.0 °F 81% 29.68 in 10.0 mi WNW 16.1 mph 23.0 mph N/A   Overcast
11:55 AM 37.4 °F 27.5 °F 32.0 °F 81% 29.68 in 10.0 mi WNW 18.4 mph 25.3 mph N/A   Mostly Cloudy
12:15 PM 37.4 °F 27.8 °F 32.0 °F 81% 29.69 in 10.0 mi WNW 17.3 mph 24.2 mph N/A   Mostly Cloudy
12:35 PM 37.4 °F 28.5 °F 32.0 °F 81% 29.70 in 10.0 mi WNW 15.0 mph 25.3 mph N/A   Overcast
12:55 PM 37.4 °F 28.5 °F 32.0 °F 81% 29.71 in 10.0 mi WNW 15.0 mph 27.6 mph N/A   Overcast
1:15 PM 37.4 °F 28.2 °F 32.0 °F 81% 29.71 in 10.0 mi WNW 16.1 mph 26.5 mph N/A   Overcast
1:35 PM 37.4 °F 27.8 °F 32.0 °F 81% 29.72 in 10.0 mi WNW 17.3 mph 23.0 mph N/A   Overcast
1:55 PM 37.4 °F 27.5 °F 32.0 °F 81% 29.72 in 10.0 mi WNW 18.4 mph 26.5 mph N/A   Overcast
2:14 PM 37.4 °F 26.6 °F 33.8 °F 87% 29.73 in 10.0 mi WNW 21.9 mph 29.9 mph N/A   Overcast
2:35 PM 37.4 °F 27.5 °F 33.8 °F 87% 29.73 in 10.0 mi WNW 18.4 mph 27.6 mph N/A   Overcast
2:55 PM 37.4 °F 28.2 °F 33.8 °F 87% 29.73 in 10.0 mi West 16.1 mph 21.9 mph N/A   Overcast
3:14 PM 37.4 °F 27.5 °F 33.8 °F 87% 29.74 in 10.0 mi WNW 18.4 mph 23.0 mph N/A   Overcast
3:35 PM 37.4 °F 27.2 °F 33.8 °F 87% 29.75 in 10.0 mi West 19.6 mph 26.5 mph N/A   Overcast
3:55 PM 37.4 °F 27.5 °F 33.8 °F 87% 29.76 in 10.0 mi WNW 18.4 mph 23.0 mph N/A   Overcast
4:15 PM 37.4 °F 28.5 °F 33.8 °F 87% 29.76 in 10.0 mi West 15.0 mph 26.5 mph N/A   Mostly Cloudy
4:35 PM 39.2 °F 31.2 °F 33.8 °F 81% 29.76 in 10.0 mi West 13.8 mph 23.0 mph N/A   Scattered Clouds
4:55 PM 39.2 °F 30.5 °F 33.8 °F 81% 29.77 in 10.0 mi WNW 16.1 mph 26.5 mph N/A   Clear
5:15 PM 39.2 °F 30.5 °F 33.8 °F 81% 29.77 in 10.0 mi WNW 16.1 mph 21.9 mph N/A   Scattered Clouds
5:35 PM 39.2 °F 32.5 °F 33.8 °F 81% 29.78 in 10.0 mi West 10.4 mph 16.1 mph N/A   Overcast
5:55 PM 39.2 °F 32.5 °F 32.0 °F 75% 29.79 in 10.0 mi West 10.4 mph 19.6 mph N/A   Overcast
6:15 PM 37.4 °F 28.5 °F 32.0 °F 81% 29.80 in 10.0 mi West 15.0 mph 20.7 mph N/A   Mostly Cloudy
6:35 PM 37.4 °F 28.5 °F 32.0 °F 81% 29.80 in 10.0 mi WNW 15.0 mph 19.6 mph N/A   Mostly Cloudy
6:55 PM 37.4 °F 29.3 °F 32.0 °F 81% 29.81 in 10.0 mi WNW 12.7 mph 18.4 mph N/A   Scattered Clouds
7:15 PM 37.4 °F 28.9 °F 32.0 °F 81% 29.83 in 10.0 mi WNW 13.8 mph - N/A   Clear
7:35 PM 37.4 °F 27.8 °F 30.2 °F 75% 29.84 in 10.0 mi WNW 17.3 mph 25.3 mph N/A   Clear
7:54 PM 35.6 °F 24.8 °F 30.2 °F 81% 29.85 in 10.0 mi WNW 19.6 mph 25.3 mph N/A   Clear
8:15 PM 33.8 °F 22.8 °F 28.4 °F 81% 29.86 in 10.0 mi WNW 18.4 mph 23.0 mph N/A   Clear
8:35 PM 33.8 °F 24.8 °F 28.4 °F 81% 29.88 in 10.0 mi WNW 12.7 mph 20.7 mph N/A   Clear
8:55 PM 33.8 °F 23.9 °F 28.4 °F 81% 29.89 in 10.0 mi WNW 15.0 mph 21.9 mph N/A   Clear
9:15 PM 33.8 °F 25.3 °F 26.6 °F 75% 29.89 in 10.0 mi WNW 11.5 mph 19.6 mph N/A   Clear
9:34 PM 33.8 °F 24.8 °F 26.6 °F 75% 29.90 in 10.0 mi WNW 12.7 mph - N/A   Clear
9:55 PM 32.0 °F 23.6 °F 26.6 °F 80% 29.91 in 10.0 mi WNW 10.4 mph - N/A   Clear
10:15 PM 30.2 °F 20.8 °F 26.6 °F 86% 29.91 in 10.0 mi WNW 11.5 mph - N/A   Clear
10:34 PM 30.2 °F 20.8 °F 26.6 °F 86% 29.92 in 10.0 mi WNW 11.5 mph - N/A   Clear
10:55 PM 30.2 °F 21.3 °F 26.6 °F 86% 29.92 in 10.0 mi NW 10.4 mph - N/A   Clear
11:15 PM 30.2 °F 21.9 °F 24.8 °F 80% 29.93 in 10.0 mi WNW 9.2 mph - N/A   Clear
11:35 PM 30.2 °F 21.3 °F 24.8 °F 80% 29.93 in 10.0 mi WNW 10.4 mph 16.1 mph N/A   Clear
11:55 PM 30.2 °F 21.3 °F 24.8 °F 80% 29.93 in 10.0 mi WNW 10.4 mph - N/A   Clear